MOLNIYA 1-62

Last updated on Sun Feb 19 2023 00:02:58 GMT+0000 (Coordinated Universal Time)

1 15214U 84089A 23045.17069386 .00009439 10365-5 51717-3 0 9995 2 15214 62.9211 330.1209 7309191 273.9344 13.4055 2.27989084249547
UTC large
Height (km)
Speed (km/s)
/
Latitude / Longitude
Inclination (degrees)
Orbital Period (minutes)
Azimuth
Elevation
Range (km)
Doppler Factor

Next 0 passes for location: London (51.5072 / 0.1276)

Sorry there are no passes over London.